Home > Weather > Enns > Past weeks

Flag for Austria Past Weather in Enns, Upper Austria, Austria — Yesterday and Last 2 Weeks

Now
74 °F

Overcast.


Feels Like: 75 °F
Forecast: 62 / 81 °F
Wind: 5 mph from West

Location: Linz / Hoersching-Flughafen

Current Time: Jul 24, 2016 at 1:00:28 PM

Latest Report: Jul 24, 2016 at 12:00 PM


Visibility: 13 mi

Pressure: 30.07 "Hg

Humidity: 76%

Dew Point: 66 °F

Location of EnnsLocation

Past Weather in Enns — Graph

°F

Enns Temperature Yesterday

Maximum temperature yesterday: 85 °F (at 5:00 PM)
Minimum temperature yesterday: 65 °F (at 7:00 AM)
Average temperature yesterday: 73 °F

High & Low Weather Summary for the Past Weeks

 TemperatureHumidityPressure
High91 °F (Jul 11, 4:00 PM)97% (Jul 12, 4:00 AM)30.30 "Hg (Jul 12, 4:00 AM)
Low51 °F (Jul 15, 4:00 AM)35% (Jul 10, 7:00 PM)29.79 "Hg (Jul 11, 7:00 PM)
Average68 °F74%30.04 "Hg
* Reported Jul 9 11:00 AM — Jul 24 11:00 AM, Enns, Weather by CustomWeather, © 2016

Note: Actual official high and low records may vary slightly from our data, if they occured in-between our weather recording intervals... More about our weather records

Advertising

Enns Weather History for the Previous 24 Hours

Scroll right to see more
 ConditionsComfort  
Time TempWeatherWind HumidityBarometerVisibility
11:00 AM
Sun, Jul 24
71 °FOvercast.5 mph79%30.08 "Hg18 mi
10:00 AM70 °FOvercast.N/A85%30.08 "Hg12 mi
9:00 AM69 °FLow clouds.3 mph90%30.08 "Hg14 mi
8:00 AM68 °FLow clouds.5 mph90%30.06 "Hg16 mi
7:00 AM67 °FLow clouds.N/A91%30.07 "Hg14 mi
6:00 AM67 °FLow clouds.N/A91%30.07 "Hg8 mi
5:00 AM66 °FLow clouds.N/A93%30.06 "Hg7 mi
4:00 AM66 °FLow clouds.5 mph92%30.06 "Hg7 mi
3:00 AM67 °FOvercast.5 mph93%30.06 "Hg7 mi
2:00 AM67 °FOvercast.6 mph91%30.05 "Hg14 mi
1:00 AM67 °FRain showers. Overcast.5 mph93%30.04 "Hg14 mi
12:00 AM67 °FLow clouds.5 mph93%30.03 "Hg22 mi
11:00 PM
Sat, Jul 23
66 °FLow clouds.6 mph95%30.03 "Hg2 mi
10:00 PM72 °FLow clouds.8 mph86%29.96 "Hg4 mi
9:00 PM77 °FLow clouds.N/A67%29.93 "Hg28 mi
8:00 PM79 °FOvercast.N/A64%29.92 "Hg25 mi
7:00 PM82 °FOvercast.N/A55%29.92 "Hg25 mi
6:00 PM83 °FOvercast.N/A55%29.92 "Hg19 mi
5:00 PM85 °FPartly sunny.N/A50%29.93 "Hg17 mi
4:00 PM85 °FScattered clouds.N/A48%29.94 "Hg19 mi
3:00 PM84 °FPassing clouds.N/A52%29.96 "Hg14 mi
2:00 PM82 °FPassing clouds.N/A54%29.97 "Hg17 mi
1:00 PMN/APassing clouds.16 mphN/AN/A2 mi
Weather by CustomWeather, © 2016

See weather overviewHow to use our weather pages